Nasa Shuttle, FL

5:23 AM EDT on April 29, 2017 (GMT -0400)
Nasa Shuttle

Weather History for KTTS - March, 2013

Change the Weather History Date:

Sunday, March 10, 2013

  Actual Average Record
Temperature  
Mean Temperature 64 °F -  
Max Temperature 75 °F 72 °F 83 °F (2017)
Min Temperature 52 °F 54 °F 44 °F (2005)
Degree Days  
Heating Degree Days 2    
Growing Degree Days 14 (Base 50)    
Moisture  
Dew Point 53 °F    
Average Humidity 68    
Maximum Humidity 97    
Minimum Humidity 42    
Precipitation  
Precipitation 0.00 in - - ()
Sea Level Pressure  
Sea Level Pressure 30.16 in    
Wind  
Wind Speed 6 mph (ESE)    
Max Wind Speed 15 mph    
Max Gust Speed 23 mph    
Visibility 10 miles    
Events      
Averages and records for this station are not official NWS values.
T = Trace of Precipitation, MM = Missing Value Source: NWS Daily Summary

Daily Weather History Graph

Daily Weather History Graph

Search for Another Location

Airport or City:

Trip Planner

Search our weather history database for the weather conditions in past years. The results will help you decide how hot, cold, wet, or windy it might be!

Date:

Astronomy

Mar. 10, 2013 Rise Set
Actual Time 7:37 AM EDT 7:28 PM EDT
Civil Twilight 7:14 AM EDT 7:52 PM EDT
Nautical Twilight 6:47 AM EDT 8:19 PM EDT
Astronomical Twilight 6:19 AM EDT 8:46 PM EDT
Moon 6:33 AM EDT (3/10) 6:35 PM EDT (3/10)
Length of Visible Light 12h 37m
Length of Day
11h 50m
Waning Crescent, 2% of the Moon is Illuminated
Mar 10
Waning Crescent
Mar 11
New
Mar 19
First Quarter
Mar 27
Full
Apr 3
Last Quarter

Hourly Weather History & Observations

Time (EDT) Temp. Dew Point Humidity Pressure Visibility Wind Dir Wind Speed Gust Speed Precip Events Conditions
12:55 AM 59.0 °F 51.3 °F 75% 30.20 in 10.0 mi ESE 4.6 mph - N/A   Mostly Cloudy
1:55 AM 58.5 °F 50.9 °F 76% 30.17 in 10.0 mi ENE 6.9 mph - N/A   Clear
3:55 AM 58.5 °F 51.4 °F 77% 30.15 in 10.0 mi East 3.5 mph - N/A   Scattered Clouds
4:55 AM 54.5 °F 51.4 °F 89% 30.14 in 10.0 mi Calm Calm - N/A   Mostly Cloudy
5:55 AM 54.3 °F 52.2 °F 92% 30.15 in 10.0 mi Calm Calm - N/A   Mostly Cloudy
6:55 AM 52.5 °F 51.6 °F 97% 30.16 in 10.0 mi Calm Calm - N/A   Overcast
7:55 AM 52.3 °F 51.4 °F 97% 30.17 in 10.0 mi Calm Calm - N/A   Scattered Clouds
8:55 AM 60.8 °F 58.8 °F 93% 30.18 in 10.0 mi Calm Calm - N/A   Overcast
9:55 AM 71.2 °F 54.9 °F 56% 30.19 in 10.0 mi ESE 12.7 mph - N/A   Mostly Cloudy
10:55 AM 73.2 °F 52.3 °F 48% 30.20 in 10.0 mi East 12.7 mph 21.9 mph N/A   Clear
11:55 AM 74.7 °F 51.3 °F 44% 30.19 in 10.0 mi ESE 15.0 mph 19.6 mph N/A   Clear
12:55 PM 74.8 °F 50.5 °F 42% 30.17 in 10.0 mi ESE 11.5 mph 23.0 mph N/A   Clear
1:55 PM 75.6 °F 55.9 °F 50% 30.15 in 10.0 mi East 15.0 mph 21.9 mph N/A   Partly Cloudy
2:55 PM 73.2 °F 54.0 °F 51% 30.14 in 10.0 mi East 11.5 mph - N/A   Mostly Cloudy
3:55 PM 72.9 °F 54.5 °F 52% 30.14 in 10.0 mi East 12.7 mph 19.6 mph N/A   Mostly Cloudy
4:55 PM 72.0 °F 54.3 °F 54% 30.14 in 10.0 mi ESE 10.4 mph - N/A   Mostly Cloudy
5:55 PM 71.6 °F 54.3 °F 54% 30.13 in 10.0 mi ESE 9.2 mph - N/A   Clear
6:55 PM 68.9 °F 54.7 °F 60% 30.14 in 10.0 mi ESE 10.4 mph - N/A   Mostly Cloudy
7:55 PM 67.5 °F 54.5 °F 63% 30.15 in 10.0 mi ESE 6.9 mph - N/A   Overcast
8:55 PM 64.2 °F 54.5 °F 71% 30.15 in 10.0 mi ESE 4.6 mph - N/A   Partly Cloudy
9:55 PM 62.8 °F 53.8 °F 72% 30.16 in 10.0 mi ESE 5.8 mph - N/A   Clear
10:55 PM 63.0 °F 54.0 °F 72% 30.17 in 10.0 mi ESE 4.6 mph - N/A   Clear
11:55 PM 60.4 °F 53.8 °F 79% 30.15 in 10.0 mi ESE 4.6 mph - N/A   Clear
12:55 AM 62.1 °F 53.4 °F 73% 30.15 in 10.0 mi SE 5.8 mph - N/A   Clear